This is the latest recevied weather packets stored in our database for station/object KC6OYN. If no packets are shown the sender has not sent any weather packets the latest 10 day(s).
| Time | Temp. | Humidity | Pressure | Rain* | Wind** | Luminosity | Snow |
|---|---|---|---|---|---|---|---|
| 1777927447 | 18.89° C | 61% | 1024.6 hPa | 0 mm | - | - | - |
| 1777927206 | 18.89° C | 62% | 1024.5 hPa | 0 mm | - | - | - |
| 1777926965 | 19.44° C | 62% | 1024.6 hPa | 0 mm | - | - | - |
| 1777926724 | 19.44° C | 62% | 1024.6 hPa | 0 mm | - | - | - |
| 1777926483 | 19.44° C | 63% | 1024.6 hPa | 0 mm | - | - | - |
| 1777926242 | 19.44° C | 63% | 1024.6 hPa | 0 mm | - | - | - |
| 1777926001 | 19.44° C | 62% | 1024.6 hPa | 0 mm | - | - | - |
| 1777925760 | 19.44° C | 63% | 1024.6 hPa | 0 mm | - | - | - |
| 1777925520 | 19.44° C | 63% | 1024.6 hPa | 0 mm | - | - | - |
| 1777925279 | 19.44° C | 63% | 1024.5 hPa | 0 mm | - | - | - |
| 1777925038 | 19.44° C | 64% | 1024.7 hPa | 0 mm | - | - | - |
| 1777924797 | 19.44° C | 64% | 1024.7 hPa | 0 mm | - | - | - |
| 1777924556 | 19.44° C | 64% | 1024.7 hPa | 0 mm | - | - | - |
| 1777924315 | 19.44° C | 64% | 1024.6 hPa | 0 mm | - | - | - |
| 1777924074 | 19.44° C | 64% | 1024.6 hPa | 0 mm | - | - | - |
| 1777923833 | 19.44° C | 64% | 1024.5 hPa | 0 mm | - | - | - |
| 1777923592 | 20° C | 64% | 1024.6 hPa | 0 mm | - | - | - |
| 1777923351 | 20° C | 65% | 1024.7 hPa | 0 mm | - | - | - |
| 1777923110 | 20° C | 66% | 1024.7 hPa | 0 mm | - | - | - |
| 1777922869 | 19.44° C | 66% | 1024.8 hPa | 0 mm | - | - | - |
| 1777922629 | 19.44° C | 68% | 1024.8 hPa | 0 mm | - | - | - |
| 1777922387 | 18.89° C | 68% | 1024.8 hPa | 0 mm | - | - | - |
| 1777922147 | 18.33° C | 68% | 1024.8 hPa | 0 mm | - | - | - |
| 1777921906 | 17.78° C | 69% | 1024.8 hPa | 0 mm | - | - | - |
| 1777921665 | 17.22° C | 70% | 1024.9 hPa | 0 mm | - | - | - |
* Rain since midnight (hover to see other rain measurements)
** Current wind speed in m/s (hover to see current wind gust speed)